BEL5LY EBBR-LSZH

Flight info

Callsign BEL5LY
Flight time 0h 55m
Altitude 31000
Route ROUSY1L ROUSY DCT GTQ DCT BAMEV DCT BLM BLM3G
Aircraft A319/M-SDE3FGHIRWY/LB1

Departure

Time 2026-05-04 19:40
Airport Brussels Airport (EBBR)

Arrival

Time 2026-05-04 20:35
Airport Zürich Airport (LSZH)
Time Latitude Longitude Altitude Speed Heading
2026-05-04 19:19 50.90415 4.49049 194 ft 0 kts 335°
2026-05-04 19:34 50.90413 4.49051 185 ft 3 kts 335°
2026-05-04 19:34 50.90388 4.49068 201 ft 4 kts 340°
2026-05-04 19:34 50.90362 4.49080 199 ft 4 kts 352°
2026-05-04 19:35 50.90338 4.49078 188 ft 4 kts 37°
2026-05-04 19:35 50.90331 4.49067 201 ft 0 kts 65°
2026-05-04 19:36 50.90331 4.49068 201 ft 0 kts 65°
2026-05-04 19:37 50.90338 4.49093 186 ft 6 kts 65°
2026-05-04 19:37 50.90369 4.49201 190 ft 15 kts 65°
2026-05-04 19:37 50.90421 4.49377 189 ft 18 kts 65°
2026-05-04 19:37 50.90475 4.49562 187 ft 19 kts 64°
2026-05-04 19:38 50.90569 4.49642 185 ft 16 kts 14°
2026-05-04 19:38 50.90677 4.49683 189 ft 16 kts 15°
2026-05-04 19:38 50.90785 4.49728 185 ft 16 kts 14°
2026-05-04 19:38 50.90869 4.49809 193 ft 14 kts 86°
2026-05-04 19:39 50.90810 4.49912 184 ft 14 kts 167°
2026-05-04 19:39 50.90697 4.49937 186 ft 22 kts 179°
2026-05-04 19:39 50.90460 4.49861 186 ft 65 kts 195°
2026-05-04 19:39 50.89731 4.49567 192 ft 146 kts 193°
2026-05-04 19:40 50.88655 4.49114 657 ft 165 kts 195°
2026-05-04 19:40 50.87515 4.48975 1428 ft 166 kts 162°
2026-05-04 19:40 50.86527 4.49887 2176 ft 168 kts 140°
2026-05-04 19:40 50.85542 4.51070 2606 ft 188 kts 139°
2026-05-04 19:41 50.84440 4.52410 2958 ft 211 kts 140°
2026-05-04 19:41 50.83204 4.53902 3323 ft 236 kts 140°
2026-05-04 19:41 50.81824 4.55544 3835 ft 259 kts 141°
2026-05-04 19:41 50.80346 4.57284 4684 ft 269 kts 141°
2026-05-04 19:42 50.78824 4.59060 5639 ft 274 kts 142°
2026-05-04 19:42 50.77287 4.60884 6600 ft 278 kts 140°
2026-05-04 19:42 50.75791 4.62847 7549 ft 281 kts 137°
2026-05-04 19:42 50.74311 4.64891 8481 ft 285 kts 137°
2026-05-04 19:43 50.72811 4.66966 9428 ft 289 kts 137°
2026-05-04 19:43 50.71313 4.69111 10295 ft 293 kts 131°
2026-05-04 19:43 50.70070 4.71721 10822 ft 308 kts 118°
2026-05-04 19:43 50.69227 4.74943 11189 ft 327 kts 104°
2026-05-04 19:44 50.68618 4.78445 11893 ft 334 kts 104°
2026-05-04 19:44 50.67975 4.81996 12700 ft 339 kts 104°
2026-05-04 19:44 50.67309 4.85587 13513 ft 343 kts 105°
2026-05-04 19:44 50.66525 4.89161 14239 ft 348 kts 113°
2026-05-04 19:45 50.65302 4.92474 14950 ft 353 kts 125°
2026-05-04 19:45 50.63663 4.95376 15666 ft 357 kts 135°
2026-05-04 19:45 50.61885 4.98120 16399 ft 359 kts 135°
2026-05-04 19:45 50.60097 5.00887 17114 ft 362 kts 135°
2026-05-04 19:46 50.58296 5.03678 17837 ft 365 kts 135°
2026-05-04 19:46 50.56483 5.06487 18510 ft 368 kts 135°
2026-05-04 19:46 50.54652 5.09320 19114 ft 371 kts 135°
2026-05-04 19:46 50.52807 5.12174 19698 ft 375 kts 137°
2026-05-04 19:47 50.50939 5.15061 20309 ft 378 kts 137°
2026-05-04 19:47 50.49056 5.17960 20925 ft 380 kts 137°
2026-05-04 19:47 50.47157 5.20877 21539 ft 383 kts 137°
2026-05-04 19:47 50.45244 5.23812 22142 ft 386 kts 137°
2026-05-04 19:48 50.43316 5.26771 22748 ft 389 kts 137°
2026-05-04 19:48 50.41373 5.29751 23342 ft 392 kts 137°
2026-05-04 19:48 50.39418 5.32749 23847 ft 395 kts 137°
2026-05-04 19:48 50.37448 5.35765 24325 ft 397 kts 138°
2026-05-04 19:49 50.35464 5.38793 24798 ft 400 kts 138°
2026-05-04 19:49 50.33465 5.41836 25273 ft 402 kts 139°
2026-05-04 19:49 50.31456 5.44889 25734 ft 404 kts 139°
2026-05-04 19:49 50.29435 5.47960 26193 ft 406 kts 139°
2026-05-04 19:50 50.27403 5.51048 26616 ft 409 kts 139°
2026-05-04 19:50 50.25355 5.54159 27064 ft 411 kts 140°
2026-05-04 19:50 50.23307 5.57270 27582 ft 411 kts 140°
2026-05-04 19:50 50.21250 5.60386 28060 ft 413 kts 141°
2026-05-04 19:51 50.19181 5.63514 28527 ft 415 kts 141°
2026-05-04 19:51 50.17105 5.66647 28982 ft 416 kts 141°
2026-05-04 19:51 50.15020 5.69797 29420 ft 418 kts 141°
2026-05-04 19:51 50.12923 5.72956 29848 ft 420 kts 141°
2026-05-04 19:52 50.10817 5.76126 30218 ft 422 kts 141°
2026-05-04 19:52 50.08580 5.79046 30541 ft 418 kts 150°
2026-05-04 19:52 50.06090 5.81336 30857 ft 414 kts 159°
2026-05-04 19:52 50.03427 5.82977 30962 ft 408 kts 166°
2026-05-04 19:53 50.00780 5.84337 30984 ft 392 kts 166°
2026-05-04 19:53 49.95685 5.86965 30983 ft 383 kts 166°
2026-05-04 19:54 49.90642 5.89556 30981 ft 382 kts 166°
2026-05-04 19:54 49.85618 5.92137 30978 ft 377 kts 166°
2026-05-04 19:55 49.80650 5.94694 30972 ft 376 kts 166°
2026-05-04 19:55 49.75681 5.97241 30976 ft 376 kts 166°
2026-05-04 19:56 49.70716 5.99771 30973 ft 376 kts 166°
2026-05-04 19:56 49.65752 6.02305 30971 ft 376 kts 166°
2026-05-04 19:57 49.60791 6.04835 30971 ft 376 kts 166°
2026-05-04 19:57 49.55827 6.07352 30966 ft 376 kts 166°
2026-05-04 19:58 49.50860 6.09876 30965 ft 376 kts 166°
2026-05-04 19:58 49.46125 6.13397 30966 ft 385 kts 148°
2026-05-04 19:59 49.41930 6.18577 30967 ft 387 kts 146°
2026-05-04 19:59 49.37739 6.23775 30968 ft 387 kts 146°
2026-05-04 20:00 49.33540 6.28961 30948 ft 388 kts 146°
2026-05-04 20:00 49.29338 6.34141 30960 ft 388 kts 146°
2026-05-04 20:01 49.25841 6.38441 30967 ft 388 kts 146°
2026-05-04 20:01 49.21628 6.43607 30979 ft 388 kts 146°
2026-05-04 20:02 49.17420 6.48763 30982 ft 388 kts 146°
2026-05-04 20:02 49.13210 6.53909 30983 ft 388 kts 146°
2026-05-04 20:03 49.08996 6.59052 30979 ft 388 kts 146°
2026-05-04 20:03 49.04778 6.64184 30960 ft 388 kts 146°
2026-05-04 20:04 49.00526 6.69340 30961 ft 388 kts 147°
2026-05-04 20:04 48.95877 6.73271 30969 ft 380 kts 163°
2026-05-04 20:05 48.90943 6.76180 30980 ft 380 kts 162°
2026-05-04 20:05 48.86012 6.79110 30972 ft 381 kts 162°
2026-05-04 20:06 48.81077 6.82033 30984 ft 381 kts 162°
2026-05-04 20:06 48.76174 6.84933 30983 ft 381 kts 162°
2026-05-04 20:07 48.71208 6.87865 30984 ft 381 kts 162°
2026-05-04 20:07 48.66270 6.90765 30991 ft 381 kts 162°
2026-05-04 20:08 48.61330 6.93668 30982 ft 381 kts 162°
2026-05-04 20:08 48.56387 6.96566 30976 ft 381 kts 162°
2026-05-04 20:09 48.51436 6.99455 30974 ft 382 kts 162°
2026-05-04 20:09 48.46482 7.02338 30984 ft 382 kts 162°
2026-05-04 20:10 48.41514 7.05218 30990 ft 383 kts 162°
2026-05-04 20:10 48.36543 7.08100 30678 ft 383 kts 162°
2026-05-04 20:10 48.34060 7.09536 30332 ft 382 kts 162°
2026-05-04 20:11 48.31583 7.10970 29981 ft 381 kts 162°
2026-05-04 20:11 48.29120 7.12397 29583 ft 379 kts 162°
2026-05-04 20:11 48.26666 7.13816 29181 ft 377 kts 162°
2026-05-04 20:11 48.24222 7.15232 28793 ft 376 kts 162°
2026-05-04 20:12 48.21786 7.16643 28407 ft 375 kts 162°
2026-05-04 20:12 48.19354 7.18046 28019 ft 374 kts 162°
2026-05-04 20:12 48.16931 7.19439 27644 ft 372 kts 162°
2026-05-04 20:12 48.14516 7.20824 27275 ft 371 kts 162°
2026-05-04 20:13 48.12108 7.22205 26909 ft 370 kts 162°
2026-05-04 20:13 48.09709 7.23581 26551 ft 369 kts 162°
2026-05-04 20:13 48.07317 7.24949 26195 ft 368 kts 162°
2026-05-04 20:13 48.04925 7.26318 25834 ft 369 kts 162°
2026-05-04 20:14 48.02533 7.27687 25489 ft 368 kts 162°
2026-05-04 20:14 48.00143 7.29055 25148 ft 367 kts 162°
2026-05-04 20:14 47.97758 7.30417 24803 ft 366 kts 162°
2026-05-04 20:14 47.95385 7.31770 24470 ft 365 kts 162°
2026-05-04 20:15 47.93023 7.33115 24142 ft 364 kts 162°
2026-05-04 20:15 47.90657 7.34462 23817 ft 363 kts 162°
2026-05-04 20:15 47.88304 7.35803 23481 ft 362 kts 162°
2026-05-04 20:15 47.85953 7.37140 23097 ft 361 kts 162°
2026-05-04 20:16 47.83610 7.38471 22720 ft 360 kts 162°
2026-05-04 20:16 47.81277 7.39794 22346 ft 358 kts 162°
2026-05-04 20:16 47.78956 7.41109 21977 ft 357 kts 162°
2026-05-04 20:16 47.76638 7.42418 21609 ft 356 kts 162°
2026-05-04 20:17 47.74328 7.43718 21251 ft 355 kts 162°
2026-05-04 20:17 47.72023 7.45017 20894 ft 354 kts 162°
2026-05-04 20:17 47.69726 7.46313 20542 ft 353 kts 162°
2026-05-04 20:17 47.67434 7.47617 20194 ft 352 kts 160°
2026-05-04 20:18 47.65291 7.49400 19848 ft 356 kts 146°
2026-05-04 20:18 47.63485 7.51930 19505 ft 360 kts 131°
2026-05-04 20:18 47.62145 7.55073 19169 ft 363 kts 117°
2026-05-04 20:18 47.61266 7.58586 18830 ft 362 kts 111°
2026-05-04 20:19 47.60448 7.62103 18503 ft 360 kts 111°
2026-05-04 20:19 47.59627 7.65605 18159 ft 359 kts 111°
2026-05-04 20:19 47.58807 7.69084 17787 ft 357 kts 111°
2026-05-04 20:19 47.57990 7.72544 17417 ft 355 kts 111°
2026-05-04 20:20 47.57179 7.75983 17052 ft 352 kts 111°
2026-05-04 20:20 47.56376 7.79395 16694 ft 350 kts 111°
2026-05-04 20:20 47.55578 7.82790 16336 ft 348 kts 111°
2026-05-04 20:20 47.54783 7.86158 15971 ft 346 kts 111°
2026-05-04 20:21 47.53988 7.89509 15636 ft 344 kts 112°
2026-05-04 20:21 47.53198 7.92835 15291 ft 342 kts 112°
2026-05-04 20:21 47.51624 7.99436 14608 ft 339 kts 112°
2026-05-04 20:22 47.50835 8.02704 14279 ft 337 kts 114°
2026-05-04 20:22 47.49762 8.05747 13942 ft 331 kts 126°
2026-05-04 20:22 47.48470 8.08551 13592 ft 329 kts 127°
2026-05-04 20:22 47.47183 8.11342 13220 ft 327 kts 127°
2026-05-04 20:23 47.45908 8.14109 12840 ft 325 kts 127°
2026-05-04 20:23 47.44639 8.16862 12486 ft 323 kts 127°
2026-05-04 20:23 47.43382 8.19588 12127 ft 320 kts 127°
2026-05-04 20:23 47.42134 8.22292 11775 ft 317 kts 127°
2026-05-04 20:24 47.40901 8.24957 11430 ft 313 kts 128°
2026-05-04 20:24 47.39679 8.27596 11082 ft 309 kts 128°
2026-05-04 20:24 47.38476 8.30194 10733 ft 305 kts 128°
2026-05-04 20:24 47.37284 8.32762 10391 ft 302 kts 127°
2026-05-04 20:25 47.36154 8.35356 10050 ft 300 kts 120°
2026-05-04 20:25 47.35383 8.38212 9696 ft 300 kts 107°
2026-05-04 20:25 47.35036 8.41242 9327 ft 299 kts 97°
2026-05-04 20:25 47.34833 8.44276 8985 ft 296 kts 98°
2026-05-04 20:26 47.34625 8.47262 8705 ft 290 kts 98°
2026-05-04 20:26 47.34418 8.50186 8424 ft 284 kts 98°
2026-05-04 20:26 47.34214 8.53058 8142 ft 278 kts 98°
2026-05-04 20:26 47.34013 8.55867 7868 ft 273 kts 98°
2026-05-04 20:27 47.33814 8.58633 7596 ft 270 kts 98°
2026-05-04 20:27 47.33616 8.61377 7319 ft 268 kts 98°
2026-05-04 20:27 47.33420 8.64095 7054 ft 266 kts 98°
2026-05-04 20:27 47.33225 8.66796 6784 ft 264 kts 98°
2026-05-04 20:28 47.33030 8.69477 6521 ft 262 kts 98°
2026-05-04 20:28 47.32835 8.72137 6251 ft 260 kts 98°
2026-05-04 20:28 47.32641 8.74790 5957 ft 260 kts 97°
2026-05-04 20:28 47.32447 8.77447 5677 ft 261 kts 97°
2026-05-04 20:29 47.32520 8.80083 5400 ft 256 kts 81°
2026-05-04 20:29 47.32783 8.82637 5126 ft 249 kts 78°
2026-05-04 20:29 47.33556 8.84822 5013 ft 236 kts 46°
2026-05-04 20:29 47.34856 8.86196 5022 ft 230 kts 22°
2026-05-04 20:30 47.36401 8.86726 5022 ft 229 kts 360°
2026-05-04 20:30 47.37960 8.86348 5023 ft 228 kts 337°
2026-05-04 20:30 47.39371 8.85283 5024 ft 228 kts 330°
2026-05-04 20:30 47.40767 8.84165 5026 ft 228 kts 330°
2026-05-04 20:31 47.42161 8.83033 5026 ft 228 kts 327°
2026-05-04 20:31 47.43313 8.81483 4936 ft 221 kts 305°
2026-05-04 20:31 47.43981 8.79494 4717 ft 215 kts 284°
2026-05-04 20:31 47.44194 8.77327 4456 ft 210 kts 275°
2026-05-04 20:32 47.44345 8.75245 4130 ft 198 kts 276°
2026-05-04 20:32 47.44489 8.73284 3848 ft 187 kts 276°
2026-05-04 20:32 47.44624 8.71420 3582 ft 178 kts 276°
2026-05-04 20:32 47.44754 8.69636 3328 ft 171 kts 276°
2026-05-04 20:33 47.44877 8.67934 3088 ft 162 kts 276°
2026-05-04 20:33 47.44992 8.66345 2852 ft 152 kts 275°
2026-05-04 20:33 47.45103 8.64813 2636 ft 149 kts 275°
2026-05-04 20:33 47.45212 8.63297 2411 ft 148 kts 275°
2026-05-04 20:34 47.45320 8.61789 2180 ft 147 kts 275°
2026-05-04 20:34 47.45428 8.60292 1955 ft 147 kts 275°
2026-05-04 20:34 47.45534 8.58796 1734 ft 147 kts 275°
2026-05-04 20:34 47.45641 8.57314 1522 ft 141 kts 275°
2026-05-04 20:35 47.45734 8.55993 1414 ft 115 kts 275°
2026-05-04 20:35 47.45797 8.55097 1397 ft 39 kts 276°
2026-05-04 20:35 47.45693 8.54892 1396 ft 30 kts 156°
2026-05-04 20:35 47.45506 8.55015 1404 ft 28 kts 155°
2026-05-04 20:36 47.45399 8.55220 1404 ft 25 kts 115°
2026-05-04 20:36 47.45321 8.55438 1408 ft 23 kts 119°
2026-05-04 20:36 47.45274 8.55610 1407 ft 15 kts 99°
2026-05-04 20:36 47.45288 8.55693 1407 ft 6 kts
2026-05-04 20:37 47.45335 8.55698 1407 ft 7 kts
2026-05-04 20:37 47.45351 8.55701 1407 ft 1 kts
2026-05-04 20:37 47.45354 8.55702 1407 ft 0 kts
2026-05-04 20:37 47.45356 8.55702 1407 ft 0 kts